Other Public Products
Issued by NWS Grand Forks, ND

Home | Current Version | Previous Version | Text Only | Print | Product List | Glossary Off
Versions: 1 2 3 4 5 6 7 8 9 10 11 12 13 14 15 16 17 18 19 20 21 22 23 24 25 26 27 28 29 30 31 32 33 34 35 36 37 38 39 40 41 42 43 44 45 46 47 48 49 50

000
FPUS83 KFGF 170410
OPUFGF
PRAIRIE TO PINES WEATHER ROUNDUP
NATIONAL WEATHER SERVICE EASTERN NORTH DAKOTA/GRAND FORKS ND
1000 PM CST MON JAN 16 2017

 **SATELLITE DATA USED TO AUGMENT SKY COVER AT AUTOMATED STATIONS**
 *****  WEATHER ACROSS EASTERN NORTH DAKOTA  *****

CITY           SKY/WX    TMP DP  RH WIND       PRES   REMARKS
GRAND FORKS    FAIR       2  -3  80 S5        30.02F WCI  -8
GRAND FORKS AF FAIR       3  -1  81 W6        30.02F WCI  -8
GRAND CITY NWS NOT AVBL
BUXTON         NOT AVBL
DEVILS LAKE    FAIR       6   3  87 SW5       30.02S WCI  -3
FARGO          FAIR       8   3  80 W3        30.03F
WAHPETON ARPT  FAIR       7   3  85 CALM      30.04S
$$

 *****  WEATHER ACROSS CENTRAL AND WESTERN NORTH DAKOTA  *****

CITY           SKY/WX    TMP DP  RH WIND       PRES   REMARKS
JAMESTOWN      FAIR      10   8  92 W8        30.01S WCI  -2
BISMARCK       FAIR      13   9  84 NW5       30.08S WCI   5
MINOT          FAIR      18  12  77 SW15      30.02S WCI   4
MINOT AFB      NOT AVBL
GARRISON         N/A     10   6  84 W6        30.05R WCI   0
WILLISTON      FAIR      10   8  92 S3        30.05F
DICKINSON      FAIR      13   8  81 SW7       30.02F WCI   3
HETTINGER      FAIR       8   4  83 CALM      30.06F
$$

 *****  OTHER OBSERVATIONS NORTHEAST NORTH DAKOTA  *****

CITY           SKY/WX    TMP DP  RH WIND       PRES   REMARKS
WALHALLA       NOT AVBL
LANGDON        NOT AVBL
CAVALIER         N/A      1   0  92 CALM      30.02S
GRAFTON        FAIR       3   1  92 W6        30.05R WCI  -8
CANDO          NOT AVBL
FORT TOTTEN      N/A     11  10  95 CALM      29.95S
ROLLA            N/A    N/A N/A N/A MISG        N/A
RUGBY            N/A      9   7  92 W7        30.01F WCI  -3
 ***** THE ABOVE OBSERVATIONS ARE NON NWS ARE NOT QUALITY
        CONTROLLED AND MAY MIS-REPORT RAIN FOR SNOW...
$$

 *****  OTHER OBSERVATIONS SOUTHEAST NORTH DAKOTA *****

CITY           SKY/WX    TMP DP  RH WIND       PRES   REMARKS
COOPERSTOWN    FAIR       9   7  92 NW10      30.01S WCI  -6
VALLEY CITY    FAIR       7   7 100 NW6       30.03S WCI  -3
OAKES          NOT AVBL
GWINNER        FAIR      10   9  92 W8        30.03S WCI  -1
SHEYENNE NWR     N/A      8   3  81 W5        29.95S WCI   0
BUFFALO        NOT AVBL
WYNDMERE       NOT AVBL
 ***** THE ABOVE OBSERVATIONS ARE NON NWS ARE NOT QUALITY
       CONTROLLED AND MAY MIS-REPORT RAIN FOR SNOW...
$$

  *****  WEATHER ACROSS NORTHERN MINNESOTA  *****

CITY           SKY/WX    TMP DP  RH WIND       PRES   REMARKS
FLAG ISLAND    FAIR       3   0  85 CALM      30.00F
WARROAD        FAIR       3   0  85 CALM      30.01F
ROSEAU         FAIR       3  -2  78 S3        30.01F
HALLOCK        FAIR       3   0  85 S5        30.02S WCI  -6
THF RVR FALLS  FAIR       6   3  87 CALM      30.01F
HALSTAD        NOT AVBL
FOSSTON        FAIR       3   0  85 CALM      30.00F
BAUDETTE       FAIR       2  -1  88 CALM      30.00S
WASKISH        FAIR       5   1  85 CALM      29.99S
CROOKSTON      FAIR       7   3  85 CALM      30.04S
$$
  *****  WEATHER ACROSS CENTRAL AND WEST MINNESOTA  *****

CITY           SKY/WX    TMP DP  RH WIND       PRES   REMARKS
BEMIDJI        FAIR       9   7  89 W6        29.99S WCI  -1
PARK RAPIDS    HAZE       5   0  79 CALM      29.98S VSB 1/4
WADENA         FAIR       9   7  92 CALM      29.99F FOG
DETROIT LAKES  FAIR      10   9  92 SE3       30.00F
MOORHEAD       FAIR       5   1  85 CALM      30.04S
FERGUS FALLS   FAIR      12  10  92 CALM      30.07F
ELBOW LAKE     FAIR       9   8  95 CALM      30.02F FOG
MORRIS MN      FAIR      12  10  92 NW8       30.00F FOG     WCI   1
STAPLES        FAIR       9   9 100 CALM      30.00S FOG
WHEATON        FAIR      12  10  92 CALM      30.06S
$$
  *****  WEATHER ELSEWHERE ACROSS MINNESOTA  *****

CITY           SKY/WX    TMP DP  RH WIND       PRES   REMARKS
DULUTH         FAIR      22  15  75 CALM      29.98F
INTRNTL FALLS  FAIR       7   3  84 CALM      30.00S
ELY            FAIR      10   9  92 CALM      30.00S
CLOQUET        FAIR      21  16  79 CALM      29.98F
BRAINERD       FAIR      11   9  92 CALM      30.00F FOG
HIBBING        FAIR       8   5  87 NW5       29.99F FOG     WCI   0
ALEXANDRIA     FAIR      12  10  92 CALM      29.99F FOG
SAINT CLOUD    MOCLDY    21  19  92 CALM      30.00S FOG
MINNEAPOLIS    FRZ RAIN  31  27  85 N6        29.97F FOG
$$

  *****  WEATHER ACROSS SOUTH DAKOTA  *****

CITY           SKY/WX    TMP DP  RH WIND       PRES   REMARKS
SIOUX FALLS    CLOUDY    30  27  88 N5        29.98R
BROOKINGS      CLOUDY    17  14  88 NW5       29.98S WCI  10
WATERTOWN      FOG        9   6  88 CALM      29.98F VSB 1/4
HURON          FAIR       5   2  87 NW7       30.05S WCI  -7
SISSETON         N/A      7   4  87 CALM      30.02S
ABERDEEN       FAIR       3  -2  79 CALM      30.05S
MITCHELL       FAIR      14   9  80 NW8       30.06S WCI   3
PIERRE         FAIR      12  10  92 W6        30.07R WCI   3
MOBRIDGE       FAIR       9   4  80 N7        30.05R WCI  -2
RAPID CITY     FAIR      21  11  65 NW6       30.07S WCI  13
$$

  *****  SOME WEATHER IN NEARBY STATES *****

CITY           SKY/WX    TMP DP  RH WIND       PRES   REMARKS
GLASGOW MT     FAIR      11   6  81 SE10      29.97F WCI  -3
GREAT FALLS MT FAIR      32  18  56 SW25      29.94S WCI  19
CHEYENNE WY    FAIR      21  12  68 W7        30.09S WCI  12
SCOTTSBLUFF NE FAIR      23  17  78 NW6       30.10F WCI  16
OMAHA NE       CLOUDY    33  30  88 NW12      29.97R WCI  24
DES MOINES IA  FOG       34  33  96 NW8       29.88S VSB 1/4
DAVENPORT IA   LGT RAIN  35  35 100 NE5       29.85S VSB 1/4
CHICAGO IL     CLOUDY    37  36  96 NE6       29.90F FOG
EAU CLAIRE WI  FRZ RAIN  32  31  96 NE5       29.96F FOG
LA CROSSE WI   MIX PCPN  37  32  82 CALM      29.93F
$$

  *****  SOME NATIONAL WEATHER *****

CITY           SKY/WX    TMP DP  RH WIND       PRES   REMARKS
LA GUARDIA NY  CLOUDY    43  24  47 SW7       30.31F
RALEIGH NC     CLOUDY    48  41  76 SW5       30.33F
ATLANTA GA     FAIR      59  55  87 E7        30.25S
NEW ORLEANS LA MOCLDY    69  66  90 SE10      30.12F
OKLAHOMA CITY  FAIR      38  33  82 W8        30.07S
ALBUQUERQUE NM LGT RAIN  42  39  89 SE8       30.09R
SALT LAKE CITY FAIR      24  19  81 NW7       30.30R WCI  16
LOS ANGELES CA FAIR      57  52  83 S5        30.04S
BOISE ID       FAIR       4   0  83 NW3       30.42S FOG
SEATTLE WA     CLOUDY    45  31  58 SE10      30.00S
$$

*** WEATHER ACROSS MANITOBA...SASKATCHEWAN AND ONTARIO ***
                ***ONTARIO***

CITY           SKY/WX    TMP DP  RH WIND       PRES   REMARKS
GERALDTON      FOG       16  14  93 E7        30.09S VSB 1   WCI   6
THUNDER BAY    CLOUDY    21  18  86 CALM      30.06F
SIOUX LOOKOUT  CLEAR      5   1  85 S3        29.99F
TORONTO        MOCLDY    34  21  60 CALM      30.21F
BIG TROUT LK   FLURRIES  19  19 100 SW10      29.96F WCI   8
PICKLE LAKE    NOT AVBL
DRYDEN         CLEAR     16  12  86 VRB2      29.99F
KENORA         CLEAR     14  10  85 S7        29.97F WCI   4
$$
                *** MANITOBA***

CITY           SKY/WX    TMP DP  RH WIND       PRES   REMARKS
BRANDON        CLEAR     10   7  85 W9        29.99S WCI  -2
DAUPHIN        CLEAR     23  19  86 W10       29.91F WCI  12
ISLAND LAKE    CLEAR     21  18  86 CALM      29.86F
PILOT MOUND      N/A     12   9  85 W3          N/A
THE PAS        PTCLDY    32  21  64 S10       29.69F WCI  24
THOMPSON       HAIL      25  23  93 S8        29.60F WCI  16
WINNIPEG       CLEAR      7   1  78 S5        30.01S WCI  -2
LYNN LAKE      CLEAR     28  27  93 SW10      29.42F WCI  19
CHURCHILL      CRYSTALS  14  10  85 S18G25    29.49F WCI  -3
GILLAM         MOCLDY    23  21  93 S12G18    29.67F WCI  12
$$
                ***SASKATCHEWAN***

CITY           SKY/WX    TMP DP  RH WIND       PRES   REMARKS
ESTEVAN        PTCLDY    14   9  79 S12       29.99F WCI   0
KINDERSLEY     PTCLDY    21  16  79 S13       29.68F WCI   9
LLOYDMINSTER   PTCLDY    25  18  74 S17       29.54F WCI  11
PRINCE ALBERT  MOCLDY    25  16  68 SW8       29.71F WCI  16
REGINA         PTCLDY    14  10  85 SE10      29.91F WCI   1
YORKTON        CLEAR     23  18  80 S14G20    29.88F WC1F1C2F2C3F3C4F4C5F5C6F6C7F7C8F8C9F9CaFaCbFbCcFcCdFdCe!



USA.gov is the U.S. government's official web portal to all federal, state and local government web resources and services.